Raleigh-Durham Airport, NC

11:39 PM EDT on March 23, 2017 (GMT -0400)
Raleigh-Durham International

Weather History for KRDU - February, 2015

Change the Weather History Date:

Thursday, February 12, 2015

  Actual Average Record
Temperature  
Mean Temperature 42 °F 44 °F  
Max Temperature 54 °F 55 °F 83 °F (2017)
Min Temperature 29 °F 33 °F 6 °F (1973)
Degree Days  
Heating Degree Days 23 21  
Month to date heating degree days 269 264  
Since 1 July heating degree days 2330 2261  
Cooling Degree Days 0 0  
Month to date cooling degree days 0 0  
Year to date cooling degree days 0 0  
Moisture  
Dew Point 24 °F    
Average Humidity 60    
Maximum Humidity 89    
Minimum Humidity 30    
Precipitation  
Precipitation 0.00 in 0.10 in 1.62 in (1906)
Month to date precipitation 0.96 1.31  
Year to date precipitation 4.31 4.81  
Snow  
Snow 0.00 in 0.00 in 7.00 in (1899)
Month to date snowfall 0.0 0.9  
Since 1 July snowfall T 4.5  
Snow Depth 0.00 in    
Sea Level Pressure  
Sea Level Pressure 29.93 in    
Wind  
Wind Speed 6 mph (WNW)    
Max Wind Speed 21 mph    
Max Gust Speed 35 mph    
Visibility 10 miles    
Events      
T = Trace of Precipitation, MM = Missing Value Source: NWS Daily Summary

Daily Weather History Graph

Daily Weather History Graph

Search for Another Location

Airport or City:

Trip Planner

Search our weather history database for the weather conditions in past years. The results will help you decide how hot, cold, wet, or windy it might be!

Date:

Astronomy

Feb. 12, 2015 Rise Set
Actual Time 7:05 AM EST 5:53 PM EST
Civil Twilight 6:39 AM EST 6:19 PM EST
Nautical Twilight 6:09 AM EST 6:49 PM EST
Astronomical Twilight 5:39 AM EST 7:19 PM EST
Moon 1:05 AM EST (2/12) 11:50 AM EST (2/12)
Length of Visible Light 11h 40m
Length of Day
10h 47m
Last Quarter, 44% of the Moon is Illuminated
Feb 12
Last Quarter
Feb 18
New
Feb 25
First Quarter
Mar 5
Full
Mar 13
Last Quarter

Hourly Weather History & Observations

Time (EST) Temp. Windchill Dew Point Humidity Pressure Visibility Wind Dir Wind Speed Gust Speed Precip Events Conditions
12:51 AM 37.9 °F 34.4 °F 30.0 °F 73% 29.94 in 10.0 mi SSW 4.6 mph - N/A   Partly Cloudy
1:51 AM 37.0 °F 34.5 °F 30.0 °F 76% 29.92 in 10.0 mi SW 3.5 mph - N/A   Partly Cloudy
2:51 AM 36.0 °F 32.1 °F 30.0 °F 79% 29.90 in 10.0 mi WSW 4.6 mph - N/A   Partly Cloudy
3:51 AM 36.0 °F - 30.0 °F 79% 29.88 in 10.0 mi Calm Calm - N/A   Partly Cloudy
4:51 AM 33.1 °F 30.0 °F 28.9 °F 85% 29.89 in 10.0 mi NW 3.5 mph - N/A   Clear
5:51 AM 34.0 °F - 28.9 °F 82% 29.89 in 10.0 mi Calm Calm - N/A   Clear
6:51 AM 33.1 °F - 28.0 °F 82% 29.90 in 9.0 mi Calm Calm - N/A   Partly Cloudy
7:51 AM 33.1 °F - 30.0 °F 89% 29.89 in 10.0 mi Calm Calm - N/A   Partly Cloudy
8:51 AM 39.9 °F - 34.0 °F 79% 29.89 in 10.0 mi Calm Calm - N/A   Partly Cloudy
9:51 AM 46.4 °F 45.2 °F 33.8 °F 62% 29.87 in 10.0 mi Variable 3.5 mph - N/A   Partly Cloudy
10:51 AM 50.0 °F - 32.0 °F 50% 29.85 in 10.0 mi Variable 4.6 mph - N/A   Partly Cloudy
11:51 AM 52.0 °F - 32.0 °F 47% 29.82 in 10.0 mi WNW 9.2 mph - N/A   Scattered Clouds
12:51 PM 54.0 °F - 30.0 °F 40% 29.78 in 10.0 mi West 4.6 mph - N/A   Scattered Clouds
1:51 PM 51.1 °F - 28.9 °F 43% 29.77 in 10.0 mi WNW 8.1 mph - N/A   Mostly Cloudy
2:51 PM 46.9 °F - 27.0 °F 46% 29.81 in 10.0 mi NNW 9.2 mph 19.6 mph N/A   Overcast
3:51 PM 44.1 °F 40.1 °F 24.1 °F 45% 29.86 in 10.0 mi Variable 6.9 mph 19.6 mph N/A   Overcast
4:51 PM 43.0 °F 37.7 °F 16.0 °F 34% 29.91 in 10.0 mi NW 9.2 mph 19.6 mph N/A   Mostly Cloudy
5:51 PM 39.9 °F 33.9 °F 10.9 °F 31% 29.96 in 10.0 mi NW 9.2 mph 26.5 mph N/A   Mostly Cloudy
6:51 PM 37.0 °F 28.9 °F 10.0 °F 33% 30.02 in 10.0 mi NW 12.7 mph 23.0 mph N/A   Scattered Clouds
7:51 PM 34.0 °F 26.6 °F 12.0 °F 40% 30.06 in 10.0 mi WNW 9.2 mph 21.9 mph N/A   Clear
8:51 PM 32.0 °F 23.6 °F 10.9 °F 42% 30.08 in 10.0 mi NW 10.4 mph 18.4 mph N/A   Clear
9:51 PM 30.9 °F 25.2 °F 10.0 °F 42% 30.11 in 10.0 mi Variable 5.8 mph - N/A   Clear
10:51 PM 30.0 °F 22.4 °F 10.0 °F 43% 30.13 in 10.0 mi NNW 8.1 mph - N/A   Clear
11:51 PM 28.9 °F 21.1 °F 6.1 °F 38% 30.14 in 10.0 mi NW 8.1 mph - N/A   Clear